User: anonymous   Login
Location: Lone Wolf Observatory
(41.0360°N, 89.2260°W)
Time: 02:12:19
(UTC-06:00)
Language:

Cosmos 1378 Rocket - Orbit

View from above orbital plane
View from above orbital plane
View from above satellite
View from above satellite

Ground track
Ground track

The orbit data is extracted from the following two-line orbital elements,

1 13272U 82059B   16338.50674550  .00000109  00000-0  10037-4 0  9997
2 13272  82.5093 323.0283 0019761  47.3534 312.9343 14.84565733862866
Epoch (UTC): 03 December 2016 12:09:42
Eccentricity: 0.0019761
inclination: 82.5093°
perigee height: 601 km
apogee height: 629 km
right ascension of ascending node: 323.0283°
argument of perigee: 47.3534°
revolutions per day: 14.84565733
mean anomaly at epoch: 312.9343°
orbit number at epoch: 86286

The dashed part of the orbit path shows where the satellite is in the earth's shadow,  

DLR